Location: Hains Lake
(37.8540°N, 99.8578°W)
Time: 04:22:33
(UTC+00:00)

Vanguard 2 Rocket - Pass Details

Date: 24 April 2021
Orbit: 553 x 3326 km, 32.9° (Epoch: 07 May)

Event Time Altitude Azimuth Distance (km) Brightness Sun altitude
Rises 18:59:35 0° 242° (WSW) 5,721 11.2 64.8°
Reaches altitude 10° 19:02:51 10° 240° (WSW) 5,019 11.1 64.6°
Maximum altitude 19:18:43 67° 162° (SSE) 3,324 11.6 63.6°
Drops below altitude 10° 19:38:52 10° 86° (E) 6,175 11.1 61.8°
Sets 19:43:24 0° 84° (E) 7,044 11.2 61.3°
